N296PL KSAN-

Flight info

Callsign N296PL
Flight time N/A
Altitude VFR/030
Route PATTERN
Aircraft C172/L-VGD/C

Departure

Time 2026-04-23 03:10
Airport San Diego International Airport (KSAN)

Arrival

Time N/A
Airport -
Time Latitude Longitude Altitude Speed Heading
2026-04-23 03:08 32.72182 -117.14094 625 ft 123 kts 286°
2026-04-23 03:08 32.72413 -117.15074 568 ft 124 kts 287°
2026-04-23 03:08 32.72649 -117.16031 406 ft 111 kts 288°
2026-04-23 03:09 32.72836 -117.16836 238 ft 92 kts 286°
2026-04-23 03:09 32.73004 -117.17513 98 ft 80 kts 286°
2026-04-23 03:09 32.73145 -117.18103 20 ft 67 kts 286°
2026-04-23 03:09 32.73251 -117.18533 20 ft 45 kts 287°
2026-04-23 03:10 32.73372 -117.19031 45 ft 79 kts 288°
2026-04-23 03:10 32.73519 -117.19682 281 ft 80 kts 285°
2026-04-23 03:10 32.73655 -117.20325 500 ft 85 kts 283°
2026-04-23 03:10 32.73828 -117.21070 632 ft 97 kts 287°
2026-04-23 03:11 32.74191 -117.21771 782 ft 103 kts 321°
2026-04-23 03:11 32.74863 -117.22088 909 ft 107 kts 333°
2026-04-23 03:11 32.75501 -117.22634 940 ft 116 kts 325°
2026-04-23 03:11 32.76143 -117.23200 1098 ft 113 kts 322°
2026-04-23 03:12 32.76735 -117.23775 1286 ft 110 kts 320°
2026-04-23 03:12 32.77111 -117.24153 1442 ft 105 kts 320°
2026-04-23 03:12 32.77910 -117.24923 1489 ft 119 kts 321°
2026-04-23 03:12 32.78568 -117.25556 1485 ft 121 kts 321°
2026-04-23 03:13 32.79191 -117.26148 1482 ft 110 kts 321°
2026-04-23 03:13 32.79628 -117.26443 1478 ft 106 kts 336°